timestamp,surface_pressure_avg,surface_temp_avg,battery_voltage,lat,long
2020-09-08 00:09:01+00:00,253.5164,18.1,12.81,47.84626,-54.09684
2020-09-08 00:19:01+00:00,253.9448,18.1,12.73,47.84626,-54.09684
2020-09-08 00:29:01+00:00,260.0598,18.1,12.73,47.84626,-54.09684
2020-09-08 00:39:01+00:00,264.7297,18.19,12.73,47.84626,-54.09684
2020-09-08 00:49:01+00:00,267.4531,18.2,12.73,47.84626,-54.09684
2020-09-08 00:59:01+00:00,270.0431,18.24,12.73,47.84626,-54.09684
2020-09-08 01:09:01+00:00,278.5914,18.28,12.73,47.84626,-54.09684
2020-09-08 01:19:01+00:00,281.2731,18.3,12.73,47.84626,-54.09684
2020-09-08 01:29:01+00:00,285.7731,18.3,12.73,47.84626,-54.09684
2020-09-08 01:39:01+00:00,294.738,18.2,12.73,47.84626,-54.09684
2020-09-08 01:49:01+00:00,303.0329,18.3,12.73,47.84626,-54.09684
2020-09-08 01:59:01+00:00,301.798,18.3,12.73,47.84626,-54.09684
2020-09-08 02:09:01+00:00,304.6547,18.3,12.73,47.84626,-54.09684
2020-09-08 02:19:01+00:00,310.0881,18.3,12.73,47.84626,-54.09684
2020-09-08 02:29:01+00:00,310.7963,18.3,12.73,47.84626,-54.09684
2020-09-08 02:39:01+00:00,306.1479,18.3,12.73,47.84626,-54.09684
2020-09-08 02:49:01+00:00,308.7614,18.29,12.73,47.84626,-54.09684
2020-09-08 02:59:01+00:00,311.153,18.3,12.73,47.84626,-54.09684
2020-09-08 03:09:01+00:00,309.173,18.3,12.73,47.84626,-54.09684
2020-09-08 03:19:01+00:00,306.0247,18.3,12.73,47.84626,-54.09684
2020-09-08 03:29:01+00:00,307.0597,18.3,12.73,47.84626,-54.09684
2020-09-08 03:39:01+00:00,306.8646,18.3,12.73,47.84626,-54.09684
2020-09-08 03:49:01+00:00,306.533,18.33,12.73,47.84626,-54.09684
2020-09-08 03:59:01+00:00,305.428,18.3,12.73,47.84626,-54.09684
2020-09-08 04:09:01+00:00,300.4946,18.3,12.73,47.84626,-54.09684
2020-09-08 04:19:01+00:00,296.3747,18.3,12.73,47.84626,-54.09684
2020-09-08 04:29:01+00:00,294.7146,18.3,12.73,47.84626,-54.09684
2020-09-08 04:39:01+00:00,290.5697,18.3,12.73,47.84626,-54.09684
2020-09-08 04:49:01+00:00,282.4897,18.3,12.73,47.84626,-54.09684
2020-09-08 04:59:01+00:00,279.4413,18.3,12.73,47.84626,-54.09684
2020-09-08 05:09:01+00:00,280.4749,18.3,12.73,47.84626,-54.09684
2020-09-08 05:19:01+00:00,278.6063,18.3,12.73,47.84626,-54.09684
2020-09-08 05:29:01+00:00,271.9831,18.33,12.73,47.84626,-54.09684
2020-09-08 05:39:01+00:00,269.8348,18.35,12.73,47.84626,-54.09684
2020-09-08 05:49:01+00:00,266.6081,18.35,12.73,47.84626,-54.09684
2020-09-08 05:59:01+00:00,255.7914,18.3,12.73,47.84626,-54.09684
2020-09-08 06:09:01+00:00,246.6198,18.3,12.73,47.84626,-54.09684
2020-09-08 06:19:01+00:00,246.8214,18.2,12.73,47.84626,-54.09684
2020-09-08 06:29:01+00:00,241.4897,18.2,12.73,47.84626,-54.09684
2020-09-08 06:39:01+00:00,230.8297,18.2,12.73,47.84626,-54.09684
2020-09-08 06:49:01+00:00,226.3531,18.2,12.73,47.84626,-54.09684
2020-09-08 06:59:01+00:00,222.9714,18.2,12.73,47.84626,-54.09684
2020-09-08 07:09:01+00:00,213.3181,18.2,12.73,47.84626,-54.09684
2020-09-08 07:19:01+00:00,205.2231,18.27,12.65,47.84626,-54.09684
2020-09-08 07:29:01+00:00,200.7731,18.3,12.65,47.84626,-54.09684
2020-09-08 07:39:01+00:00,196.0648,18.3,12.65,47.84626,-54.09684
2020-09-08 07:49:01+00:00,191.4765,18.29,12.65,47.84626,-54.09684
2020-09-08 07:59:01+00:00,188.7897,18.29,12.65,47.84626,-54.09684
2020-09-08 08:09:01+00:00,186.6548,18.3,12.65,47.84626,-54.09684
2020-09-08 08:19:01+00:00,182.9648,18.3,12.65,47.84626,-54.09684
2020-09-08 08:29:01+00:00,180.9332,18.3,12.65,47.84626,-54.09684
2020-09-08 08:39:01+00:00,182.3548,18.32,12.65,47.84626,-54.09684
2020-09-08 08:49:01+00:00,183.8615,18.35,12.65,47.84626,-54.09684
2020-09-08 08:59:01+00:00,183.3932,18.39,12.65,47.84626,-54.09684
2020-09-08 09:09:01+00:00,184.9465,18.38,12.65,47.84626,-54.09684
2020-09-08 09:19:01+00:00,188.0264,18.37,12.65,47.84626,-54.09684
2020-09-08 09:29:01+00:00,188.8415,18.35,12.65,47.84626,-54.09684
2020-09-08 09:39:01+00:00,188.3615,18.3,12.65,47.84626,-54.09684
2020-09-08 09:49:01+00:00,192.5881,18.3,12.65,47.84626,-54.09684
2020-09-08 09:59:01+00:00,197.6165,18.38,12.65,47.84626,-54.09684
2020-09-08 10:09:01+00:00,199.3064,18.39,12.65,47.84626,-54.09684
2020-09-08 10:19:01+00:00,207.1682,18.4,13.53,47.84626,-54.09684
2020-09-08 10:29:01+00:00,214.1447,18.4,13.53,47.84626,-54.09684
2020-09-08 10:39:01+00:00,215.4332,18.4,13.53,47.84626,-54.09684
2020-09-08 10:49:01+00:00,216.8531,18.4,13.53,47.84626,-54.09684
2020-09-08 10:59:01+00:00,221.8314,18.4,13.53,47.84626,-54.09684
2020-09-08 11:09:01+00:00,227.7563,18.4,13.53,47.84626,-54.09684
2020-09-08 11:19:01+00:00,229.5697,18.4,14.24,47.84626,-54.09684
2020-09-08 11:29:01+00:00,231.6981,18.39,14.24,47.84626,-54.09684
2020-09-08 11:39:01+00:00,237.4698,18.39,14.24,47.84626,-54.09684
2020-09-08 11:49:01+00:00,241.9449,18.36,14.24,47.84626,-54.09684
2020-09-08 11:59:01+00:00,242.038,18.39,14.24,47.84626,-54.09684
2020-09-08 12:09:01+00:00,244.6981,18.34,14.24,47.84626,-54.09684
2020-09-08 12:19:01+00:00,249.5764,18.3,14.48,47.84626,-54.09684
2020-09-08 12:29:01+00:00,255.8047,18.29,14.48,47.84626,-54.09684
2020-09-08 12:39:01+00:00,257.7481,18.24,14.48,47.84626,-54.09684
2020-09-08 12:49:01+00:00,261.218,18.2,14.48,47.84626,-54.09684
2020-09-08 12:59:01+00:00,268.3747,18.19,14.48,47.84626,-54.09684
2020-09-08 13:09:01+00:00,274.1013,18.17,14.48,47.84626,-54.09684
2020-09-08 13:19:01+00:00,274.0948,18.2,14.48,47.84626,-54.09684
2020-09-08 13:29:01+00:00,278.0264,18.1,14.48,47.84626,-54.09684
2020-09-08 13:39:01+00:00,288.313,17.7,14.48,47.84626,-54.09684
2020-09-08 13:49:01+00:00,294.8631,17.95,14.48,47.84626,-54.09684
2020-09-08 13:59:01+00:00,295.5497,18.1,14.48,47.84626,-54.09684
2020-09-08 14:09:01+00:00,302.783,17.78,14.48,47.84626,-54.09684
2020-09-08 14:19:01+00:00,311.2264,17.52,14.4,47.84626,-54.09684
2020-09-08 14:29:01+00:00,311.8698,17.95,14.4,47.84626,-54.09684
2020-09-08 14:39:01+00:00,311.8679,17.71,14.4,47.84626,-54.09684
2020-09-08 14:49:01+00:00,318.5364,17.39,14.4,47.84626,-54.09684
2020-09-08 14:59:01+00:00,320.8497,17.38,14.4,47.84626,-54.09684
2020-09-08 15:09:01+00:00,318.0947,17.52,14.4,47.84626,-54.09684
2020-09-08 15:19:01+00:00,319.2529,17.6,14.32,47.84626,-54.09684
2020-09-08 15:29:01+00:00,321.4597,17.57,14.32,47.84626,-54.09684
2020-09-08 15:39:01+00:00,317.2679,17.7,14.32,47.84626,-54.09684
2020-09-08 15:49:01+00:00,314.5247,17.75,14.32,47.84626,-54.09684
2020-09-08 15:59:01+00:00,315.403,17.7,14.32,47.84626,-54.09684
2020-09-08 16:09:01+00:00,313.6996,18.05,14.32,47.84626,-54.09684
2020-09-08 16:19:01+00:00,311.1545,17.97,14.24,47.84626,-54.09684
2020-09-08 16:29:01+00:00,310.1113,17.6,14.24,47.84626,-54.09684
2020-09-08 16:39:01+00:00,306.253,17.88,14.24,47.84626,-54.09684
2020-09-08 16:49:01+00:00,301.9497,17.98,14.24,47.84626,-54.09684
2020-09-08 16:59:01+00:00,302.4747,18.0,14.24,47.84626,-54.09684
2020-09-08 17:09:01+00:00,300.2563,18.08,14.24,47.84626,-54.09684
2020-09-08 17:19:01+00:00,294.2997,18.3,14.16,47.84626,-54.09684
2020-09-08 17:29:01+00:00,290.6014,18.29,14.16,47.84626,-54.09684
2020-09-08 17:39:01+00:00,286.5647,18.23,14.16,47.84626,-54.09684
2020-09-08 17:49:01+00:00,278.118,18.39,14.16,47.84626,-54.09684
2020-09-08 17:59:01+00:00,271.5697,18.4,14.16,47.84626,-54.09684
2020-09-08 18:09:01+00:00,268.6848,18.47,14.16,47.84626,-54.09684
2020-09-08 18:19:01+00:00,265.3048,18.5,13.84,47.84626,-54.09684
2020-09-08 18:29:01+00:00,258.9264,18.57,13.84,47.84626,-54.09684
2020-09-08 18:39:01+00:00,251.7897,18.6,13.84,47.84626,-54.09684
2020-09-08 18:49:01+00:00,247.4814,18.6,13.84,47.84626,-54.09684
2020-09-08 18:59:01+00:00,242.4614,18.56,13.84,47.84626,-54.09684
2020-09-08 19:09:01+00:00,234.6082,18.5,13.84,47.84626,-54.09684
2020-09-08 19:19:01+00:00,227.7814,18.51,13.6,47.84626,-54.09684
2020-09-08 19:29:01+00:00,223.6698,18.58,13.6,47.84626,-54.09684
2020-09-08 19:39:01+00:00,220.4031,18.59,13.6,47.84626,-54.09684
2020-09-08 19:49:01+00:00,212.9231,18.6,13.6,47.84626,-54.09684
2020-09-08 19:59:01+00:00,203.6798,18.6,13.6,47.84626,-54.09684
2020-09-08 20:09:01+00:00,202.0182,18.7,13.6,47.84626,-54.09684
2020-09-08 20:19:01+00:00,200.8215,18.77,13.68,47.84626,-54.09684
2020-09-08 20:29:01+00:00,195.3582,18.8,13.68,47.84626,-54.09684
2020-09-08 20:39:01+00:00,192.0132,18.8,13.68,47.84626,-54.09684
2020-09-08 20:49:01+00:00,190.5881,18.86,13.68,47.84626,-54.09684
2020-09-08 20:59:01+00:00,188.9432,18.89,13.68,47.84626,-54.09684
2020-09-08 21:09:01+00:00,187.4815,18.9,13.68,47.84626,-54.09684
2020-09-08 21:19:01+00:00,189.4415,18.8,13.29,47.84626,-54.09684
2020-09-08 21:29:01+00:00,193.0565,18.8,13.29,47.84626,-54.09684
2020-09-08 21:39:01+00:00,193.5065,18.8,13.29,47.84626,-54.09684
2020-09-08 21:49:01+00:00,192.2365,18.8,13.29,47.84626,-54.09684
2020-09-08 21:59:01+00:00,197.5148,18.8,13.29,47.84626,-54.09684
2020-09-08 22:09:01+00:00,203.6414,18.8,13.29,47.84626,-54.09684
2020-09-08 22:19:01+00:00,203.4814,18.8,12.97,47.84626,-54.09684
2020-09-08 22:29:01+00:00,208.2064,18.8,12.97,47.84626,-54.09684
2020-09-08 22:39:01+00:00,216.1947,18.8,12.97,47.84626,-54.09684
2020-09-08 22:49:01+00:00,218.0548,18.8,12.97,47.84626,-54.09684
2020-09-08 22:59:01+00:00,219.6864,18.86,12.97,47.84626,-54.09684
2020-09-08 23:09:01+00:00,224.8197,18.85,12.97,47.84626,-54.09684
2020-09-08 23:19:01+00:00,228.6597,18.83,12.81,47.84626,-54.09684
2020-09-08 23:29:01+00:00,228.173,18.84,12.81,47.84626,-54.09684
2020-09-08 23:39:01+00:00,226.5915,18.85,12.81,47.84626,-54.09684
2020-09-08 23:49:01+00:00,230.5464,18.84,12.81,47.84626,-54.09684
2020-09-08 23:59:01+00:00,236.0614,18.87,12.81,47.84626,-54.09684
